Theta_e
318 317 320 322 325 326 327 327 328 328 323 324 326 326 322 323 322 320 325 321 318 320 316 317 316 315 319 320 321 323 324 326 329 325 326 332 323 321 325 323 322 319 321 328 331 335 336 337 338 339 340 339 339 338 338 339 336 334 334 334 333 332 334 335 335 337 340 340 340 339 339 339 338 339 339 339 338 336 336 335 335 335 336 337 339 339 339 339 339 338 338 338 337 336 336 335 334
320 321 323 323 324 322 326 329 330 329 325 323 323 326 324 321 320 324 330 325 322 317 314 318 316 317 320 320 318 319 322 323 324 326 326 324 324 325 324 325 323 319 321 327 330 334 336 336 337 339 339 338 338 337 338 338 337 336 335 335 334 333 335 336 337 338 339 339 340 339 339 339 338 339 339 338 337 336 337 335 335 337 337 338 339 339 339 338 338 337 337 337 337 336 335 334 333
323 324 325 325 323 323 329 328 327 326 320 318 319 324 321 321 326 328 329 325 321 314 313 318 316 318 320 320 320 320 323 324 322 327 327 321 328 328 323 326 322 321 323 327 331 333 335 335 336 337 337 338 337 337 337 338 338 337 337 337 336 337 337 338 339 339 339 339 340 339 339 338 338 338 337 337 336 336 336 335 335 337 337 337 338 337 337 336 336 337 336 336 336 335 334 333 332
325 325 323 325 325 329 338 330 331 328 318 319 319 322 326 328 332 330 326 321 319 314 315 318 318 318 318 320 320 319 322 324 320 325 329 321 327 328 323 325 323 323 325 328 332 331 333 334 335 336 337 338 338 337 337 338 338 338 338 338 337 338 339 339 340 340 339 339 339 339 339 338 337 337 336 336 335 335 335 334 335 336 336 336 336 335 335 335 335 336 336 334 334 334 332 331 331
324 323 320 326 328 330 334 325 329 326 317 324 319 323 334 332 332 328 324 320 319 317 317 317 320 317 315 320 320 322 324 323 317 318 323 321 324 326 325 325 324 325 327 330 332 331 332 334 335 334 336 338 338 338 337 338 338 338 338 337 338 337 337 338 339 339 339 339 338 338 338 337 336 335 335 334 334 334 333 333 334 335 334 334 334 334 333 334 334 334 334 333 333 331 330 330 330
324 322 320 321 321 322 326 322 325 325 320 323 321 326 331 327 326 323 321 320 320 318 316 316 318 315 316 319 317 320 323 320 318 318 319 320 324 325 326 325 325 326 328 331 332 332 332 334 334 334 336 336 337 337 338 338 337 338 337 338 338 337 337 338 338 338 338 338 337 337 336 336 335 334 333 332 333 333 332 331 332 333 333 332 332 332 332 332 333 333 332 331 330 329 328 328 328
322 322 324 322 321 322 328 328 328 329 324 319 322 327 322 322 321 320 320 319 319 317 314 315 316 314 318 317 315 317 315 317 319 320 320 320 324 325 327 326 325 326 328 331 332 333 333 335 334 335 336 336 336 336 337 337 337 337 337 338 337 337 338 338 338 338 337 337 336 335 334 334 333 332 331 330 330 330 330 329 329 330 330 330 329 329 330 330 330 330 329 328 327 325 324 323 321
321 324 326 329 329 325 329 330 328 329 324 318 320 325 322 321 319 318 320 319 317 317 314 316 316 316 317 313 316 317 312 315 317 319 320 320 323 326 327 326 327 326 329 331 332 333 332 334 333 335 336 335 336 336 336 336 337 337 337 338 337 338 337 337 337 337 336 335 334 333 332 332 331 330 329 328 328 328 328 327 327 327 327 328 328 328 327 326 325 324 323 322 320 317 315 313 311
318 321 324 328 326 324 329 327 323 323 324 323 321 323 322 320 319 318 320 320 317 317 316 317 316 316 317 314 319 318 312 314 316 317 319 319 321 326 328 327 328 327 329 330 331 332 331 334 333 335 336 335 336 336 335 335 336 336 336 336 336 336 335 335 334 334 333 332 331 330 330 330 329 328 327 327 327 327 327 327 326 326 326 326 326 325 323 320 318 316 314 312 310 307 305 304 302
318 320 322 325 324 322 324 322 320 322 324 325 321 320 319 317 317 318 320 319 317 318 316 313 313 315 317 316 319 317 315 315 314 317 318 318 321 326 328 327 329 328 329 330 331 331 330 333 333 335 335 334 335 336 336 335 335 334 334 333 333 333 332 332 331 331 330 330 329 328 329 328 327 327 326 326 326 325 325 325 325 324 324 324 323 320 318 314 312 309 306 304 302 301 300 299 299
324 327 327 326 325 321 320 321 322 324 322 320 321 320 317 315 315 317 319 317 317 317 314 312 314 317 315 317 321 316 313 314 315 317 318 318 320 325 329 328 330 329 330 330 331 331 330 331 333 334 333 333 332 334 335 334 334 333 333 332 332 331 331 331 330 330 329 328 328 327 327 326 326 326 325 325 324 322 320 321 322 322 321 320 318 315 311 308 306 303 301 299 299 299 299 299 299
324 331 337 333 326 323 322 325 325 325 324 320 324 321 315 315 317 319 321 319 318 318 316 315 316 317 317 322 325 315 311 313 314 316 318 318 318 324 328 328 329 330 330 331 331 331 330 331 332 333 331 330 329 330 331 332 332 332 332 331 331 331 330 330 329 328 328 327 327 327 326 325 325 324 324 324 321 317 315 315 315 316 314 313 311 308 306 303 302 300 299 299 299 298 298 299 298
331 332 335 326 322 326 324 328 329 327 329 327 324 316 310 317 322 322 323 321 318 319 318 314 314 315 317 324 323 317 314 313 314 316 318 318 318 323 327 329 329 330 330 330 331 331 331 331 331 330 328 327 327 327 329 330 331 330 331 330 330 330 330 329 328 327 327 327 326 326 325 325 324 323 323 320 315 312 310 309 308 308 307 307 306 304 302 301 299 299 298 299 299 298 298 298 298
333 332 330 321 320 326 326 327 329 324 325 329 325 315 312 318 323 321 320 321 321 320 316 310 312 315 318 319 324 328 318 311 314 316 317 318 319 322 327 329 328 330 330 330 330 331 331 330 329 327 326 325 325 326 328 329 329 330 330 330 329 329 329 328 327 327 326 326 326 325 324 324 323 322 319 314 310 308 309 307 305 304 305 304 303 302 300 299 298 298 298 298 298 298 298 298 298
324 331 333 328 323 324 325 323 323 322 320 324 321 313 315 317 318 320 317 318 320 316 310 308 311 315 318 318 324 328 314 310 315 315 317 318 319 323 327 328 329 329 330 330 330 330 330 329 327 325 325 325 325 324 327 329 329 329 329 329 329 329 328 328 327 326 326 325 325 324 323 322 320 318 315 312 310 309 310 308 306 306 306 305 303 300 299 298 298 298 298 298 298 297 297 297 297
320 332 331 326 325 322 323 322 319 320 322 326 318 312 317 316 313 316 315 314 317 312 311 313 312 313 318 319 320 316 309 312 314 315 317 318 320 323 325 326 328 328 328 329 329 329 328 327 326 325 324 324 324 324 326 328 328 329 328 329 329 328 327 327 326 325 325 324 324 323 322 320 317 314 312 312 312 311 308 308 309 309 307 304 301 299 298 298 297 297 297 297 297 297 297 297 297
318 330 329 323 325 322 324 323 319 321 327 330 320 313 316 316 313 312 309 309 314 315 314 316 312 311 316 318 314 310 310 313 314 316 317 318 321 322 323 324 325 326 327 328 328 327 326 326 325 324 323 323 324 324 325 327 328 328 328 328 327 327 327 326 326 325 324 323 323 322 320 317 314 311 311 312 312 309 306 306 310 309 305 302 299 298 297 297 297 297 297 297 297 297 297 297 297
321 328 324 321 326 324 325 325 321 320 322 325 320 314 314 317 316 311 310 311 315 314 314 315 312 311 312 312 310 310 311 313 314 316 317 317 319 319 321 322 323 325 326 327 327 327 326 326 325 324 323 322 323 324 325 326 326 327 327 326 325 325 326 326 325 324 323 322 321 319 317 314 310 310 309 310 309 306 303 305 307 306 302 299 298 297 297 297 297 297 297 297 297 297 297 297 297
328 328 320 325 330 325 322 323 322 318 317 321 321 315 312 315 314 311 313 317 317 315 315 315 314 313 311 309 308 309 310 311 314 315 316 316 316 318 319 319 321 322 325 327 327 327 326 326 325 323 322 321 321 323 325 325 325 326 326 325 324 325 325 325 325 324 322 321 319 316 314 310 308 307 307 307 306 303 303 305 306 305 300 298 297 297 297 297 297 297 297 297 297 298 297 297 297
328 324 322 330 330 323 320 321 321 317 316 318 319 315 313 314 312 311 313 316 317 316 315 315 316 315 314 313 308 307 309 311 313 314 314 314 315 317 318 318 319 322 324 326 326 326 326 326 325 323 321 320 320 321 323 325 324 324 325 325 324 325 325 325 324 323 321 319 315 312 310 308 306 306 305 306 305 303 304 306 307 305 301 298 297 297 297 297 297 297 297 298 298 298 298 297 297
322 320 326 333 325 320 321 322 320 316 314 314 317 316 315 314 310 311 313 315 316 315 315 315 316 315 317 317 310 305 307 309 310 312 313 313 314 315 317 319 320 321 322 323 324 325 326 326 325 324 322 321 320 320 321 323 323 323 323 324 325 325 325 324 323 321 320 316 312 309 307 306 305 304 304 304 304 303 303 305 305 303 300 298 297 297 297 297 297 297 297 297 298 297 298 297 297
320 320 325 330 321 318 320 323 320 315 314 315 316 316 315 312 310 312 313 314 316 316 316 316 316 316 317 315 311 308 309 309 308 309 311 312 313 314 315 317 318 319 319 321 323 324 325 325 325 325 323 322 321 320 320 321 323 323 322 323 324 325 324 323 321 320 317 313 309 307 306 305 304 303 303 303 303 302 302 302 302 300 299 298 297 297 297 297 297 297 297 298 298 297 297 297 296
319 321 322 325 321 318 320 322 319 316 315 316 316 315 314 312 313 314 313 314 315 315 315 316 314 312 310 309 313 319 322 318 312 308 310 312 312 313 314 315 317 317 318 319 320 322 323 325 325 325 324 323 322 321 320 321 322 322 321 321 323 324 323 322 320 317 314 310 307 305 304 303 302 302 302 301 301 300 300 300 300 299 298 297 297 297 297 297 297 297 297 297 297 297 296 296 296
317 321 321 321 319 319 319 317 318 318 316 316 315 314 314 314 315 313 312 313 313 313 313 313 310 306 306 309 314 319 320 317 311 308 310 311 312 313 314 315 315 316 316 317 318 320 321 323 324 324 324 323 322 322 321 321 321 321 321 321 322 323 322 320 318 314 311 308 306 304 303 301 300 300 300 299 299 299 299 299 298 297 297 297 296 296 296 297 297 297 297 297 297 296 296 295 295
318 320 321 321 319 321 320 316 317 319 317 314 312 315 315 314 313 312 312 313 312 312 311 311 309 307 308 310 312 312 313 312 308 307 308 309 311 312 312 313 313 314 315 316 316 318 319 320 322 324 324 323 323 322 321 321 320 320 321 322 322 322 321 318 315 312 309 306 305 304 302 300 299 298 298 297 297 297 297 297 297 297 296 296 296 296 296 297 297 297 297 297 296 296 295 295 295
321 320 321 321 319 319 317 315 316 317 317 313 312 315 314 312 312 312 312 312 311 311 311 310 310 311 311 309 309 308 310 310 307 307 307 308 309 309 311 312 311 313 314 315 315 316 317 318 320 322 323 323 323 322 322 321 320 320 320 320 321 320 319 317 314 311 307 305 304 303 301 300 298 297 297 297 297 296 296 296 296 296 296 296 296 296 296 296 297 297 297 296 296 295 295 294 294
319 319 319 319 315 314 313 313 315 315 315 313 312 313 313 312 311 312 313 313 311 313 313 312 311 313 312 309 309 306 307 308 306 306 307 307 307 308 309 310 310 313 313 313 314 315 315 316 318 319 321 322 322 322 321 320 320 319 318 319 319 319 318 316 313 310 307 304 302 301 300 299 298 297 297 297 297 296 296 296 296 296 296 296 295 296 296 296 296 297 296 296 295 295 294 294 294
314 314 315 316 314 312 312 313 313 311 312 311 310 310 311 311 311 312 312 312 312 312 314 313 312 314 312 309 308 306 306 305 303 305 307 307 307 308 308 309 311 311 312 313 313 313 314 315 316 317 319 320 321 321 321 320 319 318 318 318 318 317 316 315 312 309 306 304 302 301 300 298 297 297 297 297 297 296 296 296 296 296 295 295 295 295 296 296 296 296 295 295 295 294 294 294 293
311 311 313 315 315 313 312 313 313 310 311 312 309 309 313 312 313 314 311 311 312 311 313 313 312 311 310 309 308 307 306 303 302 303 306 307 308 308 308 311 311 311 312 312 312 311 312 313 314 315 316 318 319 320 320 320 319 318 317 317 316 316 316 314 312 309 306 303 302 301 299 297 297 297 296 296 296 296 296 296 296 296 295 295 295 295 295 295 295 295 295 294 294 294 294 294 294
312 312 312 313 313 314 311 311 311 309 311 313 310 310 316 316 314 314 311 309 310 311 312 312 311 309 308 308 309 309 307 304 303 303 305 307 308 308 309 311 311 311 311 311 310 311 311 312 312 313 314 316 317 318 319 319 319 318 317 316 316 316 315 314 311 308 306 303 301 300 299 297 296 296 296 296 296 296 296 296 296 295 295 295 295 295 295 295 295 294 294 294 293 293 293 293 293
314 311 313 314 312 317 316 311 309 309 311 311 309 311 314 313 313 312 310 309 309 310 311 310 310 309 308 309 309 310 309 306 304 304 305 306 307 308 309 310 310 310 310 309 310 311 311 310 310 311 312 314 315 316 317 318 318 317 317 316 315 315 314 313 312 309 306 304 301 300 298 297 296 296 296 296 296 296 296 296 296 295 295 295 295 295 295 295 294 294 294 293 293 292 292 292 292
322 311 315 317 313 317 318 312 312 311 310 309 309 312 312 310 312 311 309 309 309 309 311 311 310 309 308 308 308 309 309 307 304 304 305 305 306 307 308 309 308 308 309 309 310 310 309 309 309 310 310 311 313 314 315 316 316 316 316 316 315 315 314 313 312 310 307 304 302 300 298 297 296 296 296 296 296 296 296 295 295 295 295 294 295 295 295 294 294 293 293 293 293 292 292 292 292
324 312 315 318 314 314 313 313 316 312 309 308 309 311 311 311 313 312 309 309 310 310 309 309 309 308 308 308 308 308 308 307 307 306 306 306 305 305 307 307 308 308 308 309 309 309 309 309 308 308 309 310 311 312 313 314 314 314 314 314 314 314 313 313 312 310 308 305 303 300 299 297 296 296 296 296 295 295 295 295 295 295 294 294 294 294 294 294 293 293 292 292 292 293 292 292 292
319 314 314 316 314 313 311 314 317 312 309 310 309 309 309 310 311 311 309 309 309 309 309 308 308 308 308 308 308 308 308 308 308 308 307 307 307 307 307 307 308 308 308 308 308 309 309 309 308 308 308 308 308 309 310 312 312 312 312 312 312 312 312 312 311 310 308 306 303 301 299 297 296 296 295 295 295 295 295 295 295 294 294 294 294 294 294 293 293 292 292 292 292 292 293 292 292
317 316 315 314 313 312 312 312 313 313 310 310 310 308 308 308 308 308 308 308 308 308 308 308 308 308 308 308 308 308 308 308 308 308 308 307 307 308 308 308 308 308 307 307 307 308 308 308 308 308 307 307 307 307 308 309 309 309 310 309 309 309 309 309 309 308 307 306 304 301 299 297 296 296 295 295 295 295 295 295 294 294 294 294 293 293 293 292 292 291 291 291 291 292 292 292 293
314 314 313 313 312 311 312 311 310 312 309 308 309 308 308 309 308 308 308 308 308 308 308 308 308 308 309 308 308 308 309 309 308 308 308 308 308 308 308 308 308 308 307 307 306 307 307 307 307 306 306 306 305 305 305 306 307 307 307 306 306 307 306 306 307 307 306 305 303 301 299 297 296 296 295 295 295 295 295 295 294 294 294 294 293 293 293 293 292 291 291 291 291 291 291 291 292
311 311 312 312 311 310 310 310 310 309 308 309 309 309 309 309 309 309 308 309 309 309 308 309 309 309 309 310 310 310 309 309 309 308 307 308 308 308 308 308 308 307 307 306 305 306 306 306 306 306 306 305 304 304 304 304 305 305 304 305 305 305 305 305 305 305 304 304 303 301 299 297 296 296 296 295 295 295 295 295 294 293 293 293 293 293 293 293 292 291 291 291 291 292 291 291 291
311 312 312 311 311 310 310 310 310 308 308 310 310 310 309 309 309 309 309 309 309 310 309 309 309 309 310 310 310 310 310 310 310 309 307 307 308 308 307 308 307 307 307 307 306 306 306 306 306 305 305 304 304 304 303 303 304 304 304 304 304 303 303 303 303 303 303 302 301 300 298 297 296 296 296 296 296 296 295 295 294 294 293 293 293 293 292 292 291 291 291 290 291 291 292 292 291
312 312 312 312 311 311 310 310 312 310 309 311 312 310 309 309 309 309 309 310 309 310 310 310 310 310 310 310 311 311 310 311 309 308 307 306 306 307 307 307 307 307 306 306 306 305 305 305 305 305 304 304 304 303 303 303 303 303 303 302 302 301 301 301 301 301 301 300 299 298 297 297 296 296 296 296 296 296 296 296 295 294 293 293 292 292 291 291 291 290 291 291 291 291 291 291 292
313 313 312 313 312 312 312 312 316 313 308 311 310 309 310 310 309 310 309 309 310 310 310 310 311 310 310 310 311 310 310 310 309 310 310 307 304 304 305 305 306 306 306 305 305 305 304 305 305 305 304 304 304 303 303 303 302 302 301 301 301 300 300 300 300 300 299 298 298 297 297 296 296 296 296 296 296 296 296 296 295 294 294 293 292 292 291 291 291 291 291 291 292 291 291 291 292
313 313 312 312 312 312 312 312 314 312 312 313 310 310 314 313 314 316 314 310 310 309 309 311 311 309 310 310 310 310 311 312 311 313 314 310 306 303 303 304 305 305 305 305 305 304 304 304 304 304 304 304 303 303 302 302 301 301 300 299 299 299 298 298 297 297 297 297 297 297 296 296 296 296 296 296 296 297 297 296 296 295 294 293 292 292 292 292 291 291 291 291 292 293 293 291 291
312 315 314 312 312 312 312 313 311 312 317 315 311 314 317 316 318 324 323 318 315 313 314 315 312 310 312 313 310 309 312 314 314 314 314 311 305 301 302 304 304 304 304 304 304 303 303 303 303 304 304 303 303 302 302 301 301 301 300 299 298 297 297 297 297 297 296 296 297 296 296 296 295 296 296 296 296 296 296 296 296 295 294 293 293 292 292 291 291 291 291 291 292 293 293 292 291
313 318 318 314 313 313 313 313 311 315 318 313 313 318 316 315 317 319 320 318 319 318 316 313 311 313 315 314 309 310 313 314 315 315 313 310 304 302 305 304 304 304 304 303 303 303 303 302 302 302 303 303 302 302 301 301 301 300 300 299 299 298 298 298 298 297 297 297 296 296 296 295 295 295 295 296 296 296 296 296 296 295 295 294 293 292 291 291 291 292 291 292 292 292 293 293 292
316 318 320 320 316 316 314 312 312 316 315 312 314 316 314 315 315 316 316 316 318 317 314 312 312 314 314 310 310 313 315 314 315 315 311 308 303 303 304 303 304 304 303 303 302 302 302 302 302 302 302 302 301 301 301 300 300 300 300 300 299 299 299 299 298 297 297 297 296 295 295 295 295 295 295 295 296 296 296 296 296 295 295 294 293 292 292 291 291 291 291 291 291 291 292 293 293
318 314 314 317 315 315 314 314 314 313 313 314 314 313 316 319 315 313 314 317 321 318 316 314 314 316 312 307 310 314 314 312 311 310 309 308 304 301 301 302 304 304 302 302 302 301 301 301 301 301 302 302 301 301 300 300 300 300 299 299 299 299 299 299 298 298 297 297 296 295 295 294 294 294 295 295 295 295 296 296 295 295 295 295 294 293 292 291 291 291 291 291 291 291 292 292 293
315 310 311 314 314 314 313 314 316 316 316 316 315 314 317 320 317 316 315 316 323 323 320 316 315 320 313 306 311 313 312 312 309 309 310 307 303 301 302 302 303 303 301 301 301 301 301 300 301 301 301 301 301 301 300 300 300 300 299 299 299 299 299 298 298 298 297 297 296 295 295 294 294 294 294 295 295 295 295 295 295 295 295 295 295 294 292 291 291 291 291 291 291 291 291 291 292
311 311 315 316 315 315 315 317 317 318 318 316 317 316 316 318 320 321 318 318 321 321 320 318 320 321 312 307 311 310 309 311 310 311 311 305 301 301 303 302 301 301 301 300 300 300 300 300 300 300 300 300 300 300 300 300 300 299 299 299 298 298 298 298 298 297 297 296 296 295 295 294 294 294 294 294 294 295 295 295 295 295 295 295 295 295 293 292 291 291 291 291 291 291 291 291 291
311 317 317 315 317 317 318 320 317 317 321 319 316 314 314 318 319 317 318 318 315 314 314 318 321 319 311 308 311 310 310 311 311 313 311 306 303 302 301 301 300 299 299 299 298 299 299 300 300 300 300 299 300 300 300 300 299 299 299 298 298 298 298 298 297 297 297 297 296 296 295 295 294 294 294 293 294 294 294 294 294 295 295 295 295 295 294 293 292 291 290 290 290 290 290 290 290
311 316 314 313 318 318 317 320 318 318 321 316 311 311 312 315 315 314 315 314 312 312 312 313 315 315 312 311 312 313 313 314 313 312 309 306 304 302 299 299 298 297 297 297 297 297 298 298 299 299 299 299 299 299 299 299 299 299 299 298 298 298 298 298 297 297 297 296 296 295 295 295 294 294 294 294 294 294 294 294 294 294 294 295 295 295 294 293 292 291 290 290 290 290 290 290 290
310 312 314 315 317 318 320 321 318 319 320 313 308 312 313 314 317 317 314 313 315 314 311 312 313 313 313 312 313 315 315 314 312 309 305 303 301 299 298 297 296 296 295 295 296 296 296 296 297 297 297 297 297 297 298 298 299 299 298 298 298 297 297 297 297 297 296 296 296 295 295 295 295 295 295 295 295 294 294 294 294 294 294 294 294 294 294 293 292 291 290 290 290 290 290 290 290
309 313 316 315 318 323 325 324 323 324 323 314 308 314 318 318 318 317 314 315 316 313 310 312 313 309 309 312 314 315 313 309 308 305 302 300 297 296 296 295 295 294 294 294 295 296 295 295 295 295 296 295 295 296 296 297 297 298 298 297 297 297 297 297 297 297 296 296 296 296 296 296 296 296 296 295 295 294 294 294 294 294 294 294 294 294 293 293 292 291 290 290 290 290 290 290 290
312 314 315 314 318 324 322 322 325 324 322 317 313 316 318 315 314 314 314 313 313 314 315 315 313 308 308 312 312 311 308 304 303 302 299 297 295 294 294 294 294 294 294 293 294 294 294 294 294 294 294 294 294 295 295 296 296 296 297 296 296 297 296 296 296 296 296 296 296 296 296 296 296 296 296 295 295 294 294 294 294 294 294 294 294 293 293 293 292 291 290 290 290 289 289 289 290
313 312 314 314 315 318 318 320 322 320 320 320 319 319 317 315 317 315 314 313 313 316 317 315 315 311 309 310 308 305 303 301 300 299 297 296 294 293 293 293 293 293 293 293 293 293 294 294 294 294 294 294 294 294 294 295 295 295 296 296 296 296 296 296 296 296 296 296 296 296 296 296 296 296 295 295 295 294 294 294 294 293 293 293 293 293 292 292 291 291 290 290 289 289 289 289 289
314 315 316 314 312 313 316 319 319 319 320 321 321 321 319 320 321 315 314 317 315 314 316 316 315 311 307 306 304 301 298 297 298 297 295 294 293 293 293 293 293 293 293 293 293 293 293 293 293 293 293 293 293 293 294 294 294 294 295 295 295 295 295 296 295 295 295 295 295 295 295 295 295 296 296 295 295 294 294 294 293 293 293 292 292 292 291 291 290 290 290 289 289 289 289 289 288
313 316 314 313 316 315 316 318 319 319 321 322 322 321 319 320 320 316 316 318 314 312 314 313 310 305 303 302 300 298 295 294 295 294 294 294 292 292 293 293 293 293 293 293 293 292 292 292 293 293 293 293 293 293 293 293 293 293 294 294 294 295 295 295 295 295 295 295 295 295 295 295 295 295 295 295 295 295 294 294 293 293 292 292 291 291 291 290 289 289 289 289 288 288 288 288 288
309 311 310 311 315 315 315 318 319 320 321 322 322 322 320 319 318 316 317 316 312 311 312 308 303 301 299 296 296 295 294 293 293 293 293 293 292 292 292 292 292 292 292 292 292 292 292 291 292 292 292 292 293 293 293 292 292 293 293 293 294 294 294 294 295 295 295 295 295 295 295 295 295 295 294 294 294 294 294 294 294 293 293 292 291 291 290 289 289 289 288 288 288 288 288 288 288
311 312 313 311 312 314 316 316 317 318 318 320 322 321 320 322 321 317 316 314 310 308 308 303 299 297 295 293 293 293 293 292 292 292 292 292 292 292 292 292 291 291 291 291 291 291 291 291 291 291 291 291 292 292 292 292 292 292 292 292 293 293 293 294 294 294 294 294 294 295 294 294 294 294 294 294 294 294 294 294 294 293 293 292 292 291 290 289 289 288 288 288 288 287 287 287 287
315 314 315 314 314 316 317 316 316 316 315 317 319 319 320 325 326 320 315 311 305 303 304 300 296 294 293 293 292 292 292 292 291 291 291 291 291 291 291 291 291 291 290 290 290 290 290 290 290 290 290 290 291 291 292 292 292 292 291 291 292 292 292 293 293 293 293 294 294 294 294 294 294 293 293 293 293 293 293 293 293 293 293 292 291 291 290 289 289 288 288 287 287 287 287 287 286
Wind_Speed
3 3 2 2 3 2 3 4 1 2 2 1 2 1 3 2 1 2 3 3 2 2 2 1 4 4 2 3 5 4 3 5 5 3 2 4 3 8 24 19 13 25 32 31 30 28 26 24 22 21 20 19 18 17 17 16 16 16 16 15 14 14 13 13 12 11 10 10 10 10 11 11 11 10 10 9 8 7 7 8 7 6 5 6 6 6 6 7 7 5 3 2 2 2 1 1 2
2 2 1 0 3 1 1 3 1 3 3 2 2 2 3 2 1 4 5 4 4 2 0 1 3 2 0 1 1 1 4 6 4 2 3 5 4 10 27 20 14 26 32 32 31 29 27 25 24 22 21 20 19 18 17 16 16 16 16 15 15 15 14 14 13 13 12 12 11 11 11 11 11 10 10 9 8 7 7 8 7 7 6 7 8 8 8 7 6 4 3 3 2 2 0 2 3
0 1 1 1 3 3 1 3 1 1 1 3 4 3 1 1 4 6 6 6 5 1 2 1 2 3 1 2 1 2 4 3 3 3 3 5 4 9 28 22 16 27 32 32 31 30 28 26 25 23 21 19 19 19 18 17 16 16 15 15 15 14 14 14 13 14 13 13 13 12 12 11 11 10 9 8 8 7 7 8 8 7 7 8 8 7 7 6 7 6 5 3 3 2 2 3 4
0 1 1 2 1 3 3 3 1 2 2 2 3 4 2 4 5 6 6 6 5 2 1 1 2 2 3 5 3 1 5 4 4 6 1 6 6 9 28 23 17 29 32 32 32 31 29 27 26 24 22 20 19 19 19 18 17 17 16 16 15 15 14 15 14 15 14 14 13 12 11 11 11 10 9 9 8 7 7 8 7 7 7 7 7 6 6 6 7 7 7 5 4 4 4 4 5
0 3 2 2 2 1 3 2 1 2 4 3 1 4 4 6 5 4 5 6 4 2 2 1 1 2 1 4 2 1 4 3 3 8 3 4 8 10 27 25 21 32 33 32 32 30 29 27 26 24 23 21 20 20 19 19 18 17 17 17 16 16 16 16 16 15 14 13 13 12 11 10 10 9 9 9 8 8 8 9 8 7 7 7 6 6 5 6 7 7 7 6 6 6 6 6 6
1 3 5 4 3 1 3 1 2 2 4 4 2 5 4 5 5 4 6 6 2 3 2 1 1 1 2 3 3 4 3 0 0 8 6 3 7 11 26 26 24 33 33 32 31 30 29 27 27 25 23 22 20 20 20 19 19 18 18 17 17 17 16 16 15 14 14 13 12 11 10 9 9 9 9 9 9 8 9 9 8 8 8 7 6 6 5 6 7 7 6 6 7 7 7 7 8
1 1 4 5 2 2 3 2 3 3 4 5 3 5 5 3 4 3 6 4 1 1 0 1 1 1 3 2 2 6 6 6 1 3 6 5 6 12 27 27 26 34 33 33 31 30 29 28 27 25 23 22 20 20 20 19 19 18 18 18 17 17 16 15 15 14 13 13 12 10 10 9 9 9 8 10 10 9 9 8 8 9 9 7 7 7 6 7 7 7 7 7 8 7 7 7 7
3 1 1 3 1 2 2 2 3 3 3 3 3 6 7 5 3 2 4 2 1 1 0 3 1 0 4 1 2 5 5 10 8 4 6 7 7 14 28 28 28 34 34 34 32 30 29 28 27 25 24 22 21 20 20 19 18 18 19 18 16 16 16 15 15 13 12 13 12 12 12 11 10 9 10 11 11 11 10 10 9 9 9 8 9 8 8 7 7 7 7 7 7 7 7 6 6
4 3 0 2 2 1 1 2 3 3 4 4 4 7 8 5 3 3 4 3 3 1 2 4 2 3 3 2 4 5 5 9 12 9 6 8 9 16 28 28 28 34 35 34 33 31 30 28 28 26 25 24 22 21 20 20 19 18 19 18 16 16 16 16 14 14 14 14 14 13 13 12 11 11 11 12 12 12 12 11 10 9 9 10 11 10 8 7 6 6 6 7 6 6 6 5 5
4 4 1 2 2 1 3 2 2 3 5 4 5 9 9 5 3 3 4 4 2 1 3 2 3 4 2 3 6 4 4 6 10 12 8 8 10 17 26 27 27 32 35 34 33 32 30 29 29 28 27 26 24 23 21 21 22 20 20 19 19 18 18 18 16 16 17 16 15 15 14 13 13 13 13 12 12 12 13 12 11 10 10 12 12 10 9 8 7 7 6 6 5 4 4 3 2
3 4 2 2 2 1 3 3 3 4 5 4 6 9 7 3 2 2 3 4 3 2 2 3 2 4 1 3 5 4 5 6 8 11 10 9 11 18 24 25 27 30 33 34 33 32 30 30 30 29 28 27 26 25 23 22 23 22 21 21 20 20 20 19 17 17 17 16 16 16 16 15 14 14 14 13 13 13 13 13 13 12 12 13 11 10 10 9 8 7 6 5 4 3 2 1 1
2 2 3 3 2 2 3 2 5 6 6 4 4 4 2 4 3 2 3 3 2 2 4 5 2 2 2 3 3 5 5 6 8 10 10 11 12 18 23 25 27 29 32 32 32 32 30 30 30 30 29 27 26 25 24 23 23 22 22 21 20 20 20 19 17 17 17 16 17 17 17 16 16 16 15 14 14 14 14 14 14 14 14 13 12 11 10 9 8 7 6 5 4 4 3 2 3
2 2 3 2 2 2 2 2 4 5 6 3 3 2 2 4 4 5 5 2 1 1 5 7 2 2 2 4 3 6 4 5 7 9 11 11 13 18 23 25 27 28 31 32 32 32 31 30 30 30 28 27 25 24 24 24 24 22 22 22 21 20 20 19 18 18 18 17 18 18 18 18 17 16 16 15 15 15 14 15 15 15 14 13 12 12 11 9 8 7 6 5 5 4 3 3 3
2 3 3 2 0 1 3 2 2 1 4 4 3 1 1 3 4 4 4 1 5 4 3 4 4 1 3 2 4 5 2 3 6 11 11 12 14 19 23 26 27 29 30 32 32 32 32 31 30 30 29 28 26 25 25 25 25 24 24 23 22 22 21 21 20 20 19 19 19 19 19 19 18 17 17 16 16 15 15 16 15 15 14 14 13 12 11 10 9 8 7 6 5 5 4 3 3
3 2 3 2 0 1 2 2 1 2 4 5 3 0 1 4 3 3 4 3 6 4 1 1 5 2 2 3 4 4 2 3 6 11 11 13 16 19 24 26 27 29 30 32 33 33 33 32 32 30 30 29 28 27 27 27 26 25 25 24 23 23 23 22 22 22 21 21 21 21 21 20 19 18 17 17 17 17 17 16 15 15 15 15 14 13 11 10 10 9 8 7 6 5 4 4 3
2 3 4 1 1 1 3 3 2 2 5 5 2 1 2 5 3 1 4 3 4 2 1 3 4 2 3 5 6 4 2 3 8 11 12 14 17 20 22 25 27 28 30 32 33 34 34 33 33 32 31 31 29 29 29 29 28 26 26 25 25 24 24 24 23 23 23 22 22 22 22 21 19 19 19 18 18 19 18 18 17 17 16 16 14 13 12 11 10 9 8 7 6 5 4 4 3
2 3 3 0 2 2 3 4 4 3 5 5 4 0 1 5 1 2 2 1 4 3 1 4 3 3 5 6 5 3 3 4 9 11 13 15 17 18 20 23 25 28 31 33 34 35 35 35 34 34 33 32 31 30 30 30 29 27 26 26 26 26 25 25 25 25 24 24 24 23 22 22 21 21 21 21 21 20 20 19 18 18 17 15 14 13 12 11 10 9 8 7 5 4 3 2 2
2 3 2 2 3 4 5 7 7 4 3 5 3 2 2 5 4 2 1 1 4 5 4 5 6 8 11 13 11 7 5 6 11 14 15 16 16 17 20 24 27 30 32 34 36 36 36 36 36 35 35 34 33 32 32 31 30 29 28 27 27 27 26 27 27 26 26 26 25 24 23 23 23 23 23 23 22 21 21 20 19 19 18 16 14 13 13 11 10 9 8 7 5 4 3 2 1
3 3 2 3 5 5 6 7 6 4 4 4 4 2 2 5 3 1 2 5 5 7 8 3 7 13 14 18 18 13 9 10 14 16 17 19 20 22 22 23 27 30 33 37 39 39 38 37 37 37 36 35 34 34 33 32 31 31 30 29 29 28 28 28 28 28 28 27 27 25 25 24 24 24 24 24 22 22 22 21 19 19 18 16 15 14 13 12 11 10 8 7 6 5 4 3 3
2 3 2 6 7 5 5 7 8 7 3 3 6 2 2 5 3 1 2 6 6 9 11 5 8 13 12 13 15 14 12 13 16 18 19 22 24 27 25 25 29 34 38 40 39 40 40 39 39 38 37 37 36 35 35 34 33 32 31 30 30 30 30 31 30 30 29 28 27 26 26 25 25 25 25 24 23 23 23 22 21 20 19 17 17 16 15 14 12 10 9 8 7 6 6 5 4
2 4 5 6 4 3 6 9 9 7 3 4 5 4 6 5 2 2 3 4 8 10 11 10 13 14 11 9 9 11 12 13 16 18 20 22 25 27 28 29 33 36 36 34 35 40 42 42 41 40 39 38 37 37 37 36 35 34 32 32 33 33 33 33 32 31 30 29 28 27 27 26 26 26 26 25 25 25 25 24 23 21 20 19 17 16 15 13 12 10 10 9 9 8 7 7 6
2 4 6 5 4 3 7 7 7 5 3 3 3 5 7 1 1 5 6 5 10 11 9 11 14 12 10 8 6 7 9 11 13 18 22 24 25 26 28 31 31 30 30 31 37 41 42 43 43 41 41 40 39 39 38 37 37 36 35 34 35 35 35 35 34 32 31 30 29 28 28 28 28 28 27 27 27 26 26 25 24 22 20 18 17 15 14 13 12 11 11 10 10 9 9 8 7
3 4 4 5 5 5 5 3 4 5 3 3 4 5 4 2 5 5 10 12 16 16 11 10 11 10 9 6 4 6 9 10 11 19 26 26 27 29 32 33 33 32 32 35 38 39 41 44 44 43 42 42 41 39 39 38 38 38 37 36 37 38 37 37 36 34 33 32 31 30 29 30 30 30 29 29 28 28 27 26 24 21 20 18 17 16 15 14 13 13 12 12 11 10 10 9 8
2 4 4 5 5 7 6 2 3 4 5 7 2 5 8 7 6 2 8 16 19 20 15 9 9 8 8 6 7 9 10 12 16 24 28 29 32 33 34 34 35 33 33 37 37 37 41 43 44 45 44 44 43 41 40 40 40 40 39 38 39 40 39 38 38 36 34 33 32 32 31 31 31 31 31 30 30 29 28 26 24 22 20 19 18 17 16 16 15 14 14 13 12 11 10 9 9
5 7 5 2 3 7 7 3 4 6 7 7 1 7 16 12 4 4 14 20 18 18 16 9 8 8 8 10 12 11 11 12 17 22 24 30 32 30 31 32 31 30 36 39 37 38 40 41 44 46 47 46 44 43 42 42 42 41 41 41 41 41 41 40 38 37 36 35 34 33 32 32 32 32 32 32 31 30 28 26 24 23 21 21 20 19 17 17 16 16 15 14 13 12 11 10 9
7 8 4 3 5 6 5 5 7 7 6 5 4 12 16 8 1 8 20 22 14 12 14 10 6 10 10 11 13 12 11 13 16 19 22 28 27 26 32 32 29 35 41 39 38 40 40 40 43 46 48 47 46 45 44 44 44 44 44 43 43 43 42 41 39 39 38 37 36 35 34 34 34 33 34 33 32 31 29 27 25 24 23 23 22 20 19 18 17 17 16 15 14 13 13 12 11
4 4 5 6 7 7 4 6 7 5 6 7 8 14 14 4 2 8 18 11 4 6 11 8 4 10 11 9 11 9 10 15 18 16 17 20 21 28 34 31 34 42 40 37 41 42 40 40 43 45 47 48 47 48 47 47 46 46 46 45 45 44 43 42 41 41 39 38 37 36 35 35 35 35 35 34 33 32 29 28 27 26 25 24 23 22 21 19 18 17 17 16 15 15 14 13 11
1 1 6 8 7 8 5 6 8 4 5 7 11 10 10 3 2 13 19 4 3 6 10 9 6 10 11 9 9 7 9 17 17 13 14 19 24 31 34 33 39 43 40 41 44 41 41 43 43 44 46 48 49 50 49 49 48 48 47 47 47 46 45 44 43 42 41 40 38 37 37 36 37 36 36 35 34 33 31 29 28 28 27 26 25 23 22 21 20 19 18 17 16 16 15 13 12
1 3 5 9 7 9 8 6 5 5 4 5 9 4 7 5 9 18 18 3 2 6 9 12 9 10 10 9 8 6 9 15 13 14 21 27 30 32 33 37 39 40 41 43 40 39 42 43 43 43 44 47 49 51 51 51 50 49 49 49 49 48 47 46 45 44 43 41 40 39 38 38 38 38 37 36 35 33 32 30 30 29 28 27 26 24 23 23 22 21 20 19 18 17 16 14 12
2 2 1 6 7 8 7 2 1 3 5 6 6 3 5 8 15 19 11 1 1 5 8 11 10 10 8 8 8 8 10 10 12 20 29 33 34 33 35 39 37 38 39 36 36 39 42 42 42 43 44 47 49 51 51 51 52 51 51 51 50 49 49 48 48 46 45 43 41 40 40 40 40 39 39 37 36 34 33 32 31 30 30 29 27 26 25 24 24 23 22 21 19 18 16 14 13
3 2 1 2 2 6 7 1 3 1 4 6 4 5 7 10 15 17 7 2 2 6 10 10 11 10 8 8 7 9 10 11 17 25 31 34 34 33 36 37 34 35 35 33 37 39 40 40 41 43 45 47 48 50 52 52 53 52 52 51 51 50 50 50 49 48 47 45 43 42 41 41 41 41 40 38 37 36 35 34 33 32 31 30 29 28 27 26 25 24 23 22 21 19 17 15 14
2 2 3 1 4 5 9 5 6 6 5 4 5 5 7 10 15 15 5 4 1 6 10 10 12 12 10 9 8 10 11 13 18 24 31 33 32 32 35 35 31 32 34 35 37 36 37 39 40 42 44 46 48 50 51 52 51 51 51 51 51 51 51 51 51 50 48 47 45 44 43 43 43 42 40 39 38 37 36 35 34 34 33 32 31 30 29 28 27 25 24 22 21 20 19 17 15
2 2 5 5 5 4 6 7 6 7 2 1 7 7 6 7 11 11 4 2 4 8 12 13 15 15 13 12 10 12 12 13 15 21 31 30 27 29 32 34 32 32 34 35 36 35 36 38 39 42 44 46 48 49 50 50 49 49 49 49 49 50 51 52 52 51 50 49 47 46 45 45 44 43 42 41 40 39 37 36 36 35 35 34 33 32 30 29 27 26 25 23 22 20 20 18 16
2 2 4 4 5 4 4 7 7 2 4 5 7 8 11 11 10 12 11 9 7 12 18 16 15 14 14 13 12 13 12 12 14 19 25 19 18 24 26 30 32 32 34 34 35 36 37 38 39 42 43 44 45 46 47 47 46 45 45 45 46 48 50 51 51 51 51 50 49 48 47 46 45 45 44 43 41 40 38 38 38 37 37 35 34 33 31 30 28 27 26 25 23 21 20 19 17
6 5 5 4 3 4 4 6 5 6 5 6 4 9 15 14 12 13 15 12 9 13 18 16 14 14 15 14 13 13 12 14 16 18 19 15 16 21 22 25 27 29 32 33 34 36 37 37 38 40 42 42 43 43 42 42 41 40 41 41 42 45 47 47 48 50 51 51 50 49 48 47 47 46 45 44 43 41 40 40 40 39 38 37 35 34 33 32 31 29 28 26 25 22 20 19 17
6 4 4 6 6 5 6 8 6 5 10 10 10 16 17 14 14 12 13 12 10 13 16 16 14 14 14 12 12 13 13 16 13 12 16 16 17 20 22 23 24 27 29 30 32 33 36 36 37 38 40 41 40 39 39 38 38 38 38 38 41 44 45 45 47 49 50 51 51 50 49 49 48 48 47 45 44 43 42 42 41 40 39 38 37 37 36 35 34 32 31 29 27 23 21 19 17
1 2 4 6 7 8 7 10 8 2 5 9 10 19 19 14 14 12 13 13 13 16 17 16 15 15 13 11 15 14 14 14 8 12 14 15 17 18 20 21 22 24 26 28 30 32 35 36 36 38 38 39 39 40 40 41 41 40 39 42 46 46 44 44 46 48 49 50 50 50 50 50 49 49 48 47 46 45 44 43 41 41 40 40 40 39 37 36 35 34 32 29 27 25 23 21 18
4 5 6 6 5 10 10 9 9 1 2 6 6 16 19 15 15 13 14 15 17 19 15 15 17 16 14 13 17 14 11 9 7 11 13 15 16 17 17 18 20 22 24 26 28 31 33 34 36 37 36 37 40 41 41 42 44 43 43 44 45 42 42 45 46 47 48 48 49 49 50 50 50 50 50 49 48 47 46 44 43 43 42 42 40 39 38 37 36 35 33 30 27 25 23 22 22
6 4 5 6 3 8 9 6 7 2 1 6 8 15 16 14 17 18 17 17 17 15 10 12 15 16 16 14 12 10 9 9 8 7 8 12 17 19 17 17 18 21 23 23 25 28 30 32 34 35 35 37 39 41 41 42 43 42 40 38 37 36 37 41 42 43 44 45 46 47 48 49 50 51 50 50 49 48 47 45 45 44 44 43 42 41 40 39 38 37 35 32 29 25 22 23 25
6 4 4 6 3 4 6 4 5 3 3 6 10 15 14 11 15 15 14 13 13 14 11 11 13 16 17 13 8 8 9 10 9 7 7 11 16 19 18 16 16 18 21 22 24 26 28 31 33 34 35 37 39 40 41 41 38 37 35 32 31 31 32 35 37 38 40 42 43 45 47 49 50 50 50 50 49 48 47 46 46 45 45 45 44 43 43 42 41 39 37 34 31 27 23 23 26
6 6 5 8 8 8 9 5 6 6 5 4 7 12 10 4 5 6 5 5 9 11 11 13 14 11 10 10 7 6 8 7 7 7 8 8 11 17 18 16 14 15 18 21 22 24 26 28 31 33 34 35 37 39 40 38 35 34 32 27 24 26 27 28 33 38 38 40 43 45 47 48 48 49 49 49 49 49 48 47 47 46 46 45 45 45 45 44 42 41 39 37 35 31 27 25 26
6 5 10 14 13 10 11 8 7 5 4 3 5 7 7 1 1 4 4 4 6 7 10 15 8 3 4 7 4 7 5 4 4 6 6 6 9 13 16 17 15 14 15 17 19 20 23 25 26 29 32 34 35 36 37 38 37 36 35 32 29 29 28 32 40 42 41 42 45 46 46 47 47 48 48 49 49 49 48 48 47 47 47 47 46 46 45 44 43 42 41 40 37 34 29 26 27
6 5 11 13 11 9 10 7 3 1 3 2 3 1 8 5 1 6 4 2 8 10 12 11 5 5 5 3 6 5 1 3 5 6 6 7 9 9 13 19 19 18 17 16 17 16 17 20 22 25 28 31 32 33 35 37 37 37 38 37 35 35 35 38 41 40 40 43 44 44 46 47 47 48 48 48 49 49 48 48 48 47 47 47 47 46 46 45 44 43 42 41 39 35 31 28 28
6 5 7 9 8 8 6 4 3 3 3 3 1 4 6 9 4 4 2 4 10 13 11 9 5 7 7 6 7 2 2 3 4 6 6 7 7 7 12 18 22 21 20 19 17 15 14 15 18 21 24 27 28 30 33 35 36 36 37 36 34 36 36 34 32 32 35 38 39 41 43 45 46 47 47 48 48 48 48 48 48 47 47 46 46 47 47 46 44 43 42 42 40 37 34 30 29
6 2 5 5 5 4 4 4 4 2 3 4 2 4 3 9 4 2 1 4 8 10 10 10 7 8 6 6 5 4 5 4 4 5 5 6 8 12 15 19 23 24 23 20 18 15 12 11 14 16 19 23 25 26 29 33 34 33 34 35 34 34 32 27 26 28 31 33 36 38 39 42 44 45 47 47 48 48 48 48 47 47 47 46 46 46 47 46 45 44 44 43 42 40 38 32 29
4 5 6 4 3 3 4 3 2 2 3 4 4 4 2 10 5 4 2 2 6 7 7 8 7 5 3 6 3 3 5 5 4 5 5 8 11 14 18 22 25 27 25 22 19 15 11 9 10 13 16 20 22 25 28 31 33 33 34 35 33 31 28 25 24 26 29 31 33 35 36 39 41 43 45 46 47 48 48 48 47 48 47 47 47 46 47 46 46 46 45 44 44 42 40 36 32
4 6 5 5 4 4 3 1 3 1 5 5 9 10 5 6 4 4 3 3 5 4 4 6 7 3 6 7 1 3 4 5 5 6 7 9 11 16 22 26 28 29 28 24 21 16 13 8 7 9 13 17 20 23 27 30 33 34 33 33 32 29 26 26 26 26 29 31 32 34 35 36 38 41 43 44 46 47 47 48 48 48 48 47 48 48 48 48 47 47 46 45 44 43 42 39 35
4 4 3 2 3 3 4 4 3 1 6 5 8 10 8 7 5 1 4 6 5 3 3 5 9 8 3 5 1 4 3 4 6 7 8 9 12 18 23 26 28 32 32 28 23 18 14 11 8 7 10 15 19 22 26 29 32 33 33 31 30 29 27 28 29 29 30 32 34 34 34 35 36 37 39 41 44 45 46 46 47 47 48 48 49 49 48 48 48 47 47 46 45 44 43 41 38
3 3 3 0 3 3 2 3 0 3 6 4 2 3 5 9 6 4 10 13 8 5 6 7 8 10 4 4 4 5 4 6 7 7 7 8 10 13 18 21 24 28 30 30 27 23 19 15 12 10 9 11 16 19 23 27 30 32 32 31 30 29 28 29 30 29 29 31 32 32 33 35 36 37 40 43 45 45 45 46 47 48 48 49 49 48 48 48 47 48 47 47 47 45 45 43 41
4 4 4 3 2 2 3 3 2 4 5 4 1 1 4 7 5 7 13 13 8 3 5 6 6 7 5 3 4 5 6 6 6 6 8 9 9 11 15 19 21 23 27 30 31 29 26 21 17 14 12 10 13 17 20 23 26 29 30 30 29 28 28 29 29 28 27 28 29 30 32 35 37 40 43 45 46 46 47 48 48 48 49 49 48 48 48 47 47 48 48 48 48 46 45 44 42
5 3 3 3 3 4 4 3 4 4 3 3 2 2 4 3 3 5 9 8 6 3 4 4 4 4 2 3 5 6 6 7 6 7 9 10 11 15 18 21 24 26 30 33 34 34 32 28 23 18 15 12 11 13 16 19 23 25 27 28 28 27 27 27 28 28 27 27 28 29 32 35 37 40 42 43 44 45 47 48 48 49 50 49 49 48 48 47 47 47 48 48 48 47 46 45 44
3 3 3 2 4 4 3 3 4 2 2 3 2 3 5 4 6 10 8 7 6 5 4 3 4 4 5 5 6 6 7 8 8 8 10 11 13 17 19 21 24 26 30 33 35 35 34 32 28 24 20 16 13 12 13 16 19 21 23 25 26 27 27 27 27 27 27 28 29 30 33 35 36 37 38 39 40 42 44 46 47 49 49 49 49 49 49 49 49 48 48 48 48 47 47 46 45
1 2 3 4 3 4 2 3 1 2 3 4 3 5 7 6 10 9 2 2 4 6 5 4 4 6 8 6 7 7 8 9 9 9 10 11 14 18 21 23 25 27 30 33 34 35 34 32 30 28 26 22 18 15 14 14 16 19 21 23 24 25 26 27 28 27 27 27 28 30 33 34 35 36 36 36 38 39 42 44 46 47 47 47 48 49 49 49 49 49 50 50 49 48 47 47 46
5 3 4 3 2 2 1 1 1 1 6 5 3 8 9 6 7 5 5 3 4 6 6 5 6 7 9 8 8 10 10 10 10 10 10 11 14 18 22 24 28 29 31 32 32 33 35 35 33 31 29 27 24 21 18 16 15 17 20 21 22 24 25 27 28 28 27 27 29 31 32 34 36 36 37 37 37 38 39 41 43 44 45 46 47 47 48 48 48 49 49 49 49 48 47 47 47
4 3 2 2 2 3 1 2 2 4 6 4 4 9 9 6 7 8 7 6 1 3 6 8 10 10 10 10 11 11 11 10 10 10 9 9 12 17 20 23 27 29 29 30 32 34 36 36 36 35 33 31 30 27 23 20 18 17 18 20 22 23 25 27 28 29 28 28 30 31 32 34 36 36 37 37 37 38 39 41 42 43 44 44 45 46 46 46 47 47 48 48 47 47 48 48 48
1 1 2 1 3 3 2 2 2 3 6 5 5 7 6 5 8 11 11 5 1 4 7 9 10 11 10 10 10 10 10 9 8 8 7 7 9 14 17 19 23 25 27 29 31 34 36 36 37 36 35 35 35 33 30 26 22 19 18 19 21 22 24 26 27 28 30 31 32 32 33 35 36 36 36 36 38 39 40 41 43 44 44 45 45 45 45 45 46 47 47 48 48 48 48 49 49
2 1 3 2 2 1 2 2 2 4 7 7 7 8 6 5 5 7 5 3 6 6 7 7 8 10 9 8 7 7 7 7 6 6 6 6 8 13 16 18 20 23 25 28 29 32 34 35 36 36 36 37 37 36 34 31 27 23 20 20 20 21 22 24 26 27 30 32 33 34 34 35 35 36 36 37 38 38 39 41 42 44 45 46 46 46 46 45 46 47 47 47 47 48 49 49 49
5 5 5 6 5 3 4 6 5 5 6 6 8 10 7 3 4 6 4 6 7 6 7 7 7 7 6 6 6 6 6 6 5 5 4 5 7 10 12 15 18 20 23 26 28 30 32 33 33 34 36 37 37 36 35 34 31 28 25 22 21 21 21 22 25 27 29 30 31 33 34 35 36 36 36 37 38 38 39 40 42 44 45 45 46 46 46 47 47 48 48 47 47 48 50 50 48
Wind_Direction
293 284 284 288 304 283 335 39 73 324 69 262 277 242 258 244 297 288 273 274 274 237 190 211 159 157 141 170 204 202 194 182 178 156 222 244 260 199 179 180 183 177 178 178 177 179 181 180 180 182 183 184 186 186 186 186 187 188 187 184 181 181 181 179 176 176 176 173 171 168 163 157 157 150 141 137 136 133 135 138 132 128 131 137 129 129 129 121 124 133 146 151 158 139 113 57 30
294 285 291 311 6 0 251 57 102 328 36 290 273 190 264 315 306 243 236 231 226 235 289 225 195 254 271 152 191 212 243 214 200 190 261 265 272 205 181 178 181 178 179 178 178 180 181 180 179 182 184 185 186 187 189 189 189 192 189 185 184 182 181 179 177 177 177 175 173 169 164 159 158 151 143 140 146 140 130 141 137 123 128 132 126 128 124 127 146 162 174 167 189 194 221 333 340
301 310 304 188 21 36 80 38 107 357 17 281 277 229 251 240 229 232 229 234 241 285 339 214 200 271 205 248 246 184 260 255 227 213 278 244 243 207 184 178 176 179 180 179 178 182 183 180 180 182 183 184 187 189 190 190 191 193 189 188 187 184 182 180 178 177 177 175 172 167 163 164 160 151 151 148 154 152 137 145 144 131 134 133 133 137 127 148 175 178 189 186 200 232 276 307 312
107 15 329 187 48 29 66 34 132 138 222 248 277 254 220 212 232 246 248 252 264 304 301 152 181 236 181 236 248 214 262 264 227 191 254 222 211 205 186 178 172 178 181 181 180 183 185 181 181 181 181 183 186 189 190 190 191 192 189 189 188 185 185 182 180 177 176 173 172 167 164 170 167 162 165 164 165 160 152 156 154 146 149 146 145 148 138 171 187 182 197 211 228 252 279 287 288
140 39 22 139 110 37 97 58 97 137 217 194 250 261 227 220 245 270 273 276 267 209 192 131 264 303 181 227 205 230 250 257 245 200 228 233 213 204 186 179 172 178 182 183 183 185 185 183 182 181 182 184 186 188 189 189 189 191 189 187 186 187 188 186 184 178 173 173 174 171 168 173 176 173 171 175 176 170 169 170 172 167 167 165 160 157 152 187 203 201 210 226 244 260 273 274 275
178 66 47 82 97 96 121 165 173 208 229 173 214 263 247 226 243 276 292 299 275 196 191 52 279 328 277 253 209 218 230 259 338 201 221 239 219 200 185 182 175 179 183 184 184 185 185 184 183 181 183 184 185 187 187 189 189 190 189 187 187 188 189 187 186 181 175 177 179 176 177 178 183 185 181 189 192 186 182 177 182 184 184 178 166 163 164 202 218 221 228 239 252 261 265 266 270
156 135 33 72 71 37 124 204 203 237 244 178 201 268 288 256 223 298 318 332 6 213 185 279 266 7 265 286 267 239 231 223 219 197 216 222 221 193 185 184 179 181 184 185 186 186 186 186 185 181 183 185 185 187 188 190 190 189 189 188 188 188 186 183 183 184 182 185 186 187 194 196 200 202 197 202 203 192 183 179 180 186 191 179 164 174 193 219 226 229 235 243 250 253 256 258 264
81 140 357 95 101 12 118 235 242 221 249 221 222 255 277 272 216 291 306 323 290 257 146 259 211 161 270 351 277 254 247 233 233 234 217 221 218 187 186 186 182 183 185 187 187 188 188 189 188 183 185 186 185 189 191 190 189 190 190 188 188 188 189 190 190 191 196 201 200 204 208 207 212 210 199 196 195 185 177 175 175 178 179 176 185 201 214 223 225 227 231 237 243 246 249 253 260
54 45 151 92 138 354 27 285 272 234 255 261 253 251 267 268 223 250 264 280 279 244 235 246 165 198 295 352 260 279 291 244 231 233 222 218 212 188 189 190 188 186 187 189 189 189 190 191 191 188 188 187 187 191 194 193 190 193 194 192 195 197 199 203 206 206 207 210 208 209 210 208 208 203 194 187 185 182 175 171 173 174 173 188 206 212 217 219 220 221 224 230 235 239 244 252 261
40 23 157 85 112 319 317 276 259 253 251 252 264 260 265 260 215 225 241 272 263 220 263 206 155 225 304 305 266 286 278 251 229 225 222 212 203 191 193 194 193 189 189 190 191 191 192 194 194 193 192 191 190 191 194 196 194 197 199 199 204 207 207 207 210 210 206 207 207 205 205 204 200 193 189 185 182 182 178 174 171 171 180 201 212 212 213 211 212 217 222 227 230 231 236 244 250
39 359 110 84 73 286 276 258 269 268 269 286 281 263 258 231 197 220 226 276 244 229 269 132 171 220 249 283 261 261 255 271 242 222 218 208 199 195 196 197 196 194 192 192 193 194 195 197 198 198 198 197 196 196 197 198 198 200 203 203 205 207 207 205 204 207 204 203 203 200 199 198 194 189 186 183 184 188 188 185 181 185 197 207 210 208 206 202 203 205 208 208 203 197 187 168 123
90 333 65 98 163 210 230 250 275 282 296 300 269 261 235 153 157 211 205 254 240 274 250 184 194 169 160 278 255 273 273 272 251 223 216 206 200 197 198 199 197 198 196 196 196 197 199 200 201 202 203 204 202 202 201 201 202 203 205 205 205 205 205 202 200 204 203 199 197 195 195 193 190 187 184 185 191 198 199 197 197 202 205 206 204 201 197 195 194 187 182 174 165 155 140 117 93
128 154 89 135 187 175 182 237 273 304 308 269 237 253 120 146 186 209 180 215 211 299 259 207 171 108 219 261 279 300 289 265 241 213 212 205 200 198 199 200 198 199 198 200 200 200 202 202 204 205 207 209 207 205 204 203 203 203 205 205 203 204 202 198 198 200 199 195 194 193 192 190 190 188 187 191 198 202 200 200 201 201 200 197 194 192 190 188 182 175 167 158 151 139 124 102 78
141 150 117 153 111 144 175 260 281 316 285 257 257 270 158 207 209 187 151 261 241 204 253 204 148 150 251 272 307 298 272 273 226 204 205 200 199 198 199 200 200 200 200 202 203 204 204 205 207 209 210 211 211 208 206 206 205 203 204 203 202 203 200 197 197 198 197 195 194 193 193 192 190 190 193 200 201 198 194 194 196 193 189 187 186 185 185 180 174 169 162 158 152 141 128 111 89
134 137 91 121 48 322 202 245 198 138 258 254 255 334 331 253 165 144 187 230 256 209 233 208 161 201 209 197 262 251 250 281 209 198 198 196 197 198 199 200 201 201 202 204 206 207 208 209 210 211 212 212 212 210 207 207 207 205 204 202 201 203 200 198 198 198 197 196 196 195 196 195 193 194 197 198 195 191 188 186 185 183 182 182 183 182 179 173 169 166 162 159 152 144 137 124 109
115 115 70 97 212 270 217 214 136 134 249 243 252 66 351 280 148 173 233 196 281 269 169 210 188 232 183 192 234 223 284 264 194 195 192 192 193 195 200 200 203 204 205 207 208 210 210 212 213 212 213 213 212 210 208 208 208 207 205 202 201 203 201 198 199 200 199 198 199 198 199 198 197 197 195 193 190 189 187 182 177 178 182 183 183 179 175 172 169 167 163 158 152 146 138 131 119
81 85 80 316 207 209 202 195 184 187 253 266 290 180 125 298 268 245 262 127 273 270 218 235 227 235 211 217 245 257 287 224 188 189 184 187 189 191 199 202 205 206 207 209 210 211 212 213 214 214 214 213 212 210 209 209 208 208 206 203 203 204 202 201 201 202 201 200 201 201 202 201 199 198 194 192 191 190 187 182 179 181 187 186 183 179 176 175 171 168 164 159 155 150 143 141 133
68 90 125 223 203 203 188 189 199 191 251 262 270 170 171 294 295 288 318 321 283 277 263 262 274 256 244 253 263 268 257 211 191 188 182 183 185 190 200 203 206 209 210 211 212 212 213 214 214 215 215 213 212 210 210 210 209 208 207 204 205 205 203 204 203 203 204 202 203 204 205 204 201 199 195 194 195 191 187 185 184 185 190 188 184 181 179 177 174 171 169 168 165 164 167 170 179
97 122 157 228 206 213 197 187 196 205 232 253 269 225 200 258 266 16 276 283 309 291 275 253 269 265 259 258 254 250 236 213 201 194 190 189 191 196 201 204 207 210 212 212 213 213 213 214 214 215 215 213 212 211 211 211 209 209 208 206 206 206 205 206 206 206 206 206 207 208 208 207 204 202 199 198 197 191 188 188 187 188 191 189 185 183 181 180 178 178 177 177 177 178 184 186 194
158 139 198 240 217 229 230 209 210 220 234 282 284 279 230 243 230 144 240 280 291 266 267 252 254 261 259 255 245 236 225 215 207 202 203 203 203 204 204 205 208 213 215 215 214 214 214 215 215 215 214 213 212 212 212 212 211 210 208 207 207 207 207 208 208 209 210 210 211 211 211 209 206 204 202 200 197 191 188 188 187 189 191 189 187 185 184 185 184 184 181 182 184 184 187 188 189
177 155 204 230 196 234 239 218 222 230 227 249 280 325 290 257 183 181 174 291 281 253 250 237 241 251 253 257 241 221 214 215 211 210 215 215 215 214 214 214 216 219 218 217 216 216 215 215 215 215 215 214 213 213 213 213 213 211 208 207 208 208 209 209 210 211 212 213 214 214 212 210 207 205 203 201 197 192 190 189 191 193 193 191 192 191 191 190 188 187 187 185 185 185 184 184 185
177 207 224 216 162 240 243 212 224 213 175 228 274 301 282 282 175 193 169 225 260 257 241 225 232 238 243 253 230 206 209 217 214 216 221 222 223 221 223 223 223 223 220 220 220 219 217 216 216 215 215 215 215 215 215 214 213 212 210 209 209 210 211 211 212 213 214 215 216 215 213 210 208 205 204 201 198 195 194 194 196 197 197 196 195 196 195 191 190 190 190 189 186 184 182 182 182
232 246 250 235 193 232 248 186 206 177 158 224 228 281 294 335 289 204 175 219 248 260 251 231 238 232 238 248 197 197 214 218 217 220 222 224 226 225 226 226 226 225 224 225 224 222 219 217 217 216 217 216 216 216 216 216 214 214 213 211 211 211 212 213 214 215 215 216 217 216 214 211 208 206 204 202 200 198 199 199 199 200 199 199 197 196 197 193 193 193 192 190 186 182 181 181 180
248 258 255 248 210 224 244 196 199 192 220 240 227 320 290 264 281 229 199 228 244 260 261 250 258 248 242 246 225 224 224 223 228 229 228 228 231 231 231 230 229 228 227 228 226 224 223 219 217 217 217 217 216 216 216 217 216 215 215 214 214 214 214 215 215 216 216 217 217 217 215 212 210 208 206 204 203 202 202 203 202 201 200 200 199 197 200 199 196 195 193 189 185 182 180 179 176
219 234 241 245 227 237 257 259 243 242 243 243 234 282 268 255 252 277 257 249 246 258 270 267 267 267 248 244 245 242 236 233 237 237 234 235 237 238 237 234 232 230 231 231 228 227 226 222 219 218 218 217 217 216 216 217 217 216 215 215 215 216 216 216 217 217 217 217 217 216 215 214 212 210 208 206 206 205 205 205 204 203 201 200 201 199 201 203 199 195 193 189 185 182 180 179 176
215 221 253 270 273 272 279 268 242 246 243 190 184 253 264 271 218 257 259 255 256 260 271 274 268 266 251 244 247 242 241 238 238 237 237 239 239 238 240 236 231 233 235 233 230 230 228 224 222 221 219 218 217 217 218 218 217 217 216 216 216 216 217 218 218 218 218 217 216 216 215 214 214 212 210 209 208 208 206 205 205 204 203 202 202 201 200 203 201 195 192 189 186 183 181 179 178
190 200 274 263 275 287 262 262 250 247 260 191 193 251 264 294 63 261 258 245 234 255 268 275 257 260 255 246 247 242 242 242 240 236 239 242 234 234 239 233 230 235 235 231 232 231 228 226 226 223 221 219 217 218 219 218 218 218 218 217 217 218 217 218 218 219 219 218 218 216 215 215 215 214 213 211 210 209 207 205 205 204 204 203 202 202 199 200 201 197 192 190 187 184 182 179 179
110 126 301 279 297 297 232 248 261 230 267 203 187 250 279 312 144 246 259 236 153 251 274 278 254 258 262 254 252 244 241 248 246 233 233 236 229 231 233 231 232 234 233 232 233 230 227 228 227 224 222 220 218 219 219 218 219 218 218 217 219 219 218 218 218 219 219 219 219 217 216 215 215 215 215 214 212 210 208 206 205 205 205 203 201 201 200 198 198 197 193 190 188 184 183 180 178
25 61 317 294 333 308 247 239 255 186 227 181 156 252 288 253 224 244 260 255 187 255 272 276 264 257 264 263 259 248 244 252 246 230 234 238 237 234 235 238 237 234 235 235 232 228 229 228 226 225 223 220 220 220 219 219 219 219 218 218 219 219 218 218 219 219 220 219 219 218 217 216 216 216 215 215 214 211 209 207 207 206 205 203 202 201 199 198 197 195 193 190 188 185 185 182 179
301 55 322 299 337 306 267 228 76 164 210 166 146 263 260 239 246 254 264 122 193 268 264 270 273 266 265 264 264 259 251 246 235 233 238 241 242 239 240 245 242 238 238 235 231 231 230 227 225 225 223 222 222 221 219 219 220 219 219 219 219 219 218 219 219 220 220 219 219 218 217 217 217 217 216 215 214 212 210 209 208 207 205 203 202 202 200 199 196 195 194 190 188 187 186 185 182
300 301 213 319 293 281 299 270 124 267 233 154 160 259 249 253 260 260 275 74 188 264 269 270 273 273 271 264 264 268 259 242 238 241 244 245 245 243 245 249 246 242 240 234 235 235 231 227 225 224 223 224 222 221 220 220 220 219 219 219 219 219 218 219 219 219 219 219 219 218 217 217 217 217 216 215 214 212 211 209 209 208 205 204 203 203 201 199 198 197 195 192 188 186 187 185 183
10 284 276 285 212 265 308 283 192 239 275 126 168 241 256 256 262 267 302 44 191 253 268 272 274 275 275 273 266 266 265 256 252 253 255 253 249 247 249 253 250 246 243 239 239 236 232 230 227 225 224 224 223 222 222 220 220 219 219 219 219 219 219 219 219 219 219 219 219 218 217 217 217 217 216 216 215 213 211 211 211 209 206 205 204 204 202 201 199 197 196 195 191 187 187 185 183
334 229 253 252 239 280 321 294 248 228 231 193 219 239 269 256 262 277 297 317 290 278 275 273 274 277 275 274 267 262 266 270 268 261 260 258 255 254 255 257 256 253 249 244 240 236 233 231 228 227 226 225 224 222 221 220 219 218 219 218 218 218 219 219 219 219 219 219 219 218 217 216 217 218 217 217 216 214 213 212 212 209 207 206 205 204 202 201 200 198 197 196 196 192 189 187 184
279 226 241 243 245 272 309 291 298 304 170 209 240 242 255 261 275 290 285 280 287 282 279 275 272 277 274 270 268 266 266 269 268 263 266 272 270 266 263 262 260 257 254 248 242 240 237 233 229 229 228 226 224 222 221 219 218 218 218 218 218 219 219 219 218 218 218 218 219 218 217 216 217 217 217 217 216 215 214 213 212 209 208 207 205 204 203 202 201 200 199 196 196 196 194 190 185
239 236 253 280 264 249 257 260 299 330 259 234 279 262 256 265 273 279 280 278 268 264 274 277 273 272 270 271 271 271 271 264 262 271 286 297 286 278 273 267 263 258 255 250 245 241 238 235 232 230 227 224 223 222 219 217 217 217 217 218 218 220 219 218 218 218 218 218 219 218 217 217 217 217 217 217 216 215 214 213 212 209 208 207 205 204 203 202 201 200 200 198 196 196 196 193 186
234 226 246 281 285 252 237 249 261 296 284 275 276 273 270 273 272 274 276 274 266 263 270 274 274 271 270 275 273 271 269 265 272 300 310 307 296 289 281 274 267 261 256 251 246 240 236 233 230 228 225 223 220 217 214 213 213 213 214 215 217 219 219 218 218 219 219 219 219 218 218 217 217 217 216 216 216 215 214 213 211 209 209 208 206 205 204 203 202 200 200 201 198 194 191 189 185
334 250 263 262 271 273 259 266 267 208 278 271 258 273 279 279 278 277 276 279 273 264 264 269 274 275 275 273 270 269 266 271 320 358 345 334 317 302 289 278 269 261 254 247 243 239 236 233 229 226 223 220 216 213 211 209 208 208 209 213 216 217 217 217 218 219 219 220 220 219 218 217 217 217 216 216 215 215 214 212 211 209 209 209 208 208 207 205 204 202 201 201 201 195 189 186 183
287 256 277 269 250 271 268 269 281 248 244 262 248 273 279 280 279 271 267 269 264 260 262 271 273 275 277 271 269 273 275 292 5 17 3 351 325 308 296 282 269 261 256 248 244 241 238 233 229 227 223 217 215 214 211 209 210 209 209 213 215 215 216 217 217 219 219 220 220 219 218 217 217 217 217 216 215 215 213 212 211 211 210 209 209 209 208 207 205 203 202 200 200 197 193 189 182
256 249 282 282 253 277 274 261 292 342 215 275 287 281 280 277 270 260 250 249 259 267 262 262 268 272 272 269 277 291 308 334 10 13 348 329 315 314 310 296 282 271 265 257 250 245 238 232 229 227 223 219 216 214 212 212 212 211 212 214 214 214 217 219 219 220 220 219 219 218 218 217 217 217 217 216 214 214 214 213 212 212 211 210 209 208 208 208 206 204 204 202 199 195 195 193 188
231 224 267 276 260 279 273 262 319 341 242 276 297 289 284 271 262 258 254 249 259 271 265 256 257 259 265 278 303 326 341 347 354 347 320 316 321 325 321 313 303 287 276 268 258 249 241 235 231 226 224 221 217 215 214 213 212 211 212 216 217 215 219 220 220 222 222 220 219 219 219 218 217 217 216 216 215 215 215 215 214 213 212 211 210 209 208 208 207 206 205 204 201 195 194 194 194
229 209 231 261 259 249 251 276 335 329 286 299 316 301 293 265 257 273 290 274 256 265 270 261 254 253 271 293 313 6 17 357 346 329 314 324 326 323 326 329 321 305 292 283 272 259 249 242 235 229 225 222 219 216 213 210 208 207 206 209 212 212 216 216 216 219 220 219 219 219 219 218 217 217 217 217 216 216 216 216 215 214 213 212 211 211 211 210 209 208 207 206 205 202 199 195 197
267 217 213 238 254 253 257 288 347 349 313 344 6 324 301 6 87 278 301 329 283 261 248 251 269 338 304 292 343 45 26 327 309 292 302 329 314 318 339 349 343 329 317 303 289 275 261 251 242 233 227 224 221 216 211 208 206 203 199 198 197 198 203 209 213 215 214 216 218 218 219 218 217 217 218 218 218 217 217 216 216 215 214 213 212 213 213 213 211 210 210 209 209 208 204 197 197
285 237 209 224 242 252 259 279 332 308 258 295 58 19 285 286 219 254 263 332 282 259 244 258 328 343 291 332 42 58 305 298 308 308 341 332 305 326 352 354 350 343 338 324 305 291 273 258 247 239 232 227 222 217 212 208 205 204 202 201 200 199 203 211 215 215 215 216 217 217 218 218 218 218 218 218 218 218 218 217 217 216 216 215 213 213 214 214 214 213 213 212 211 210 207 203 201
263 233 189 201 223 234 229 221 225 237 277 314 100 145 274 284 257 253 189 172 253 261 264 285 316 294 302 37 55 34 314 333 326 321 330 295 296 354 354 350 353 349 347 343 326 308 287 266 250 241 236 230 225 219 213 210 208 207 207 208 210 210 212 217 217 215 217 216 215 216 217 217 217 217 217 218 218 218 218 217 217 216 216 216 215 214 216 216 216 215 214 214 212 210 210 210 207
252 195 145 174 203 207 166 164 204 265 345 313 251 149 254 279 275 25 82 193 250 268 274 283 282 284 325 47 50 0 335 325 295 282 299 308 339 359 351 353 2 358 355 356 348 331 307 280 255 240 233 229 226 222 217 214 213 212 212 212 215 218 219 221 221 217 217 216 215 216 216 216 216 216 216 218 218 217 218 218 217 217 217 217 216 217 218 217 217 217 215 215 214 213 213 213 214
228 116 93 71 65 66 90 132 136 53 315 253 213 167 237 280 281 89 69 259 260 263 269 275 266 268 35 62 40 339 331 324 312 304 338 351 345 351 356 2 10 10 4 2 0 349 329 301 266 244 232 227 225 223 221 217 216 216 217 217 219 221 220 220 221 218 217 216 215 215 216 216 216 215 215 216 217 217 218 218 218 218 218 218 218 218 218 218 218 219 219 218 217 216 215 214 218
136 105 68 41 40 39 48 36 90 58 285 228 192 184 185 283 291 134 186 231 219 239 298 307 299 329 77 98 204 303 335 322 332 347 351 347 346 0 8 8 10 13 12 10 8 359 344 327 287 255 237 228 223 221 221 221 219 218 220 222 223 224 221 218 218 216 214 213 213 214 215 216 216 216 216 216 217 218 218 218 218 219 219 219 220 220 219 220 220 220 220 220 219 218 218 217 218
107 92 66 32 346 12 26 353 49 169 262 238 198 187 179 234 262 334 278 259 224 227 301 305 303 312 53 103 281 321 347 328 355 2 345 345 357 6 9 9 8 10 12 11 10 6 356 346 325 283 248 233 227 222 220 221 221 221 223 225 226 227 225 222 219 218 215 213 212 212 212 214 215 216 216 216 218 218 217 217 218 219 219 220 220 221 221 221 221 221 221 221 220 220 219 218 218
109 109 120 226 309 342 346 311 77 218 256 275 237 185 208 241 259 292 279 278 268 225 230 254 276 292 325 42 339 337 357 351 2 356 344 357 6 6 5 5 7 11 11 9 9 10 6 359 343 315 282 249 236 229 224 222 223 224 225 227 229 229 228 228 226 224 222 218 215 212 211 212 213 214 216 218 219 218 217 218 218 219 219 220 221 222 222 221 221 221 221 221 221 221 220 220 220
161 158 159 166 196 246 260 254 258 265 273 308 316 189 266 282 281 247 248 269 288 224 225 248 251 270 296 333 333 352 357 347 346 345 358 11 10 10 7 5 9 13 13 14 15 13 12 10 356 332 311 278 248 237 231 227 227 228 230 231 233 234 233 233 232 230 230 227 222 218 217 216 216 217 219 220 221 219 218 219 220 220 221 222 222 222 222 222 222 222 222 222 222 222 222 221 221
183 166 138 162 179 193 224 224 239 260 274 308 300 194 232 263 284 251 236 257 289 275 265 272 261 271 312 357 3 11 -0 350 350 359 16 21 14 14 14 13 15 16 17 20 20 18 17 14 5 349 331 308 278 256 244 238 235 234 234 235 237 239 239 240 239 237 235 233 230 226 225 223 222 223 223 223 222 220 220 220 220 221 222 222 222 222 221 221 222 222 222 223 223 223 222 222 222
206 126 114 222 206 177 226 235 204 207 288 285 251 225 236 242 284 282 264 269 293 304 325 348 347 12 56 46 24 19 9 9 11 19 26 23 17 18 19 20 19 20 23 24 24 24 22 17 11 4 351 333 311 285 265 253 248 243 241 241 241 242 243 244 244 243 240 239 237 233 232 231 229 228 228 226 224 223 223 222 221 222 222 222 222 222 222 221 221 221 221 222 223 223 222 222 222
161 126 188 225 175 146 236 274 144 99 266 251 205 251 277 294 293 294 321 57 6 1 0 360 360 39 60 45 32 33 26 23 25 33 33 22 18 18 19 20 20 21 24 25 27 28 29 25 19 14 7 358 341 318 297 279 266 257 251 248 247 246 246 246 246 247 245 244 242 240 238 236 234 232 231 230 228 226 225 223 222 223 222 222 222 222 222 221 221 221 221 222 222 222 222 222 222
140 178 216 198 133 135 152 267 338 225 246 246 223 252 273 287 285 322 52 73 35 15 1 355 3 31 42 37 45 49 40 31 28 32 31 24 20 16 16 19 21 23 24 25 26 28 31 31 27 22 16 11 2 346 327 310 293 277 266 259 255 252 251 250 249 249 249 247 246 244 241 239 237 236 235 233 231 229 228 226 225 224 224 223 223 222 222 221 220 221 221 221 222 221 221 221 221
153 205 232 127 181 227 158 171 236 241 247 256 225 240 255 254 253 278 286 266 274 14 5 16 23 25 26 29 38 42 40 32 26 28 23 20 19 16 17 19 21 24 24 24 24 25 28 28 27 25 21 18 16 8 354 337 321 302 286 274 265 260 256 255 253 251 251 250 249 248 245 243 241 239 237 234 232 230 229 228 226 226 225 225 224 224 223 222 221 220 220 220 220 220 220 220 220
81 322 302 108 179 214 200 175 169 234 255 259 233 230 234 231 245 268 279 278 27 21 16 27 35 34 28 29 29 30 36 34 25 26 21 19 20 19 22 23 22 25 25 25 25 25 25 23 22 22 20 19 19 17 12 1 346 329 310 293 280 272 265 262 258 254 252 250 250 250 250 249 246 243 239 235 233 231 229 228 227 226 226 225 225 224 223 222 222 221 220 220 219 219 219 219 219
162 215 243 223 204 222 272 232 175 224 252 259 257 248 235 229 249 270 288 25 44 36 47 52 48 47 38 33 33 30 39 42 36 34 28 29 29 25 27 26 25 26 27 27 26 25 25 22 19 17 16 15 14 14 14 11 4 352 335 317 302 291 281 273 267 262 257 254 252 252 252 253 250 246 242 239 236 233 231 230 228 227 226 225 225 224 223 222 222 222 221 221 220 219 218 218 218
187 199 210 218 223 237 270 250 206 209 238 244 256 258 248 242 283 297 337 57 53 46 67 66 51 51 46 36 38 37 42 49 53 53 46 44 38 31 29 29 29 29 28 27 25 24 24 22 19 17 15 13 10 9 10 12 11 6 356 344 330 317 304 290 278 270 265 261 259 256 255 253 251 249 246 242 239 236 233 231 229 228 227 225 224 224 223 222 222 222 221 220 219 218 218 216 216